Regional Weather Roundup
Issued by NWS

Home | Current Version | Previous Version | Text Only | Print | Product List | Glossary On
Versions: 1 2 3 4 5 6 7 8 9 10 11 12 13 14 15 16 17 18 19 20 21 22 23 24 25 26 27 28 29 30 31 32 33 34 35 36 37 38 39 40 41 42 43 44 45 46 47 48 49 50
000
ASUS43 KTOP 260508
RWRKS

WEATHER ROUNDUP FOR KANSAS
NATIONAL WEATHER SERVICE GOODLAND KS
1100 PM CST TUE NOV 25 2014

NOTE:  "FAIR" INDICATES FEW OR NO CLOUDS BELOW 12,000 FEET WITH NO
SIGNIFICANT WEATHER AND/OR OBSTRUCTIONS TO VISIBILITY.

KSZ001>006-013>018-027>032-041>047-260600-
NORTHWEST KANSAS

CITY           SKY/WX    TMP DP  RH WIND       PRES   REMARKS
GOODLAND       MIX PCPN  36  34  92 N14       30.03R WCI  27
HAYS           CLOUDY    39  16  38 CALM      29.92R
HILL CITY      CLOUDY    46  25  43 NW15      29.95R
RUSSELL        CLOUDY    42  21  43 S9        29.91R
$$

KSZ061>065-074>080-084>089-260600-
SOUTHWEST KANSAS

CITY           SKY/WX    TMP DP  RH WIND       PRES   REMARKS
DODGE CITY     MOCLDY    38  16  40 SW9       29.91F
ELKHART          N/A     38  17  42 W10         N/A  WCI  31
GARDEN CITY    CLOUDY    43  16  33 N16       29.95R
GREAT BEND     CLOUDY    41  21  45 SW7       29.93R
LIBERAL        CLEAR     30  14  51 W9        29.95R
PRATT          CLOUDY    37  25  60 S13       29.93F WCI  29
$$

KSZ066>073-081>083-090>101-260600-
SOUTHEAST KANSAS

CITY           SKY/WX    TMP DP  RH WIND       PRES   REMARKS
CHANUTE        MOCLDY    39  25  57 S12       30.04F WCI  32
COFFEYVILLE    MOCLDY    40  25  55 S8        30.05F
HUTCHINSON     CLOUDY    42  27  55 S6        29.94F
MEDICINE LODGE   N/A     39  27  62 S6        29.94F
NEWTON         CLOUDY    41  25  52 S12       29.96F
PARSONS        MOCLDY    40  25  55 SE8       30.05F
WICHITA INTL   CLOUDY    42  27  55 S13       29.96F
WICHITA JABRA  CLOUDY    41  27  57 S13       29.96F
WICHITA MCCONL CLOUDY    41  26  54 SE13      29.97F
WINFIELD       PTCLDY    39  28  64 S9        30.00F
$$

KSZ007>012-019>026-033>040-048>060-102>105-260600-
NORTHEAST KANSAS

CITY           SKY/WX    TMP DP  RH WIND       PRES   REMARKS
CONCORDIA      CLOUDY    43  27  53 S14       29.88F
EMPORIA        CLOUDY    37  23  56 S17       29.97F WCI  27
LAWRENCE       CLOUDY    37  23  56 SE9       29.98F
MANHATTAN      CLOUDY    44  26  49 S12       29.92F
MARYSVILLE     CLOUDY    43  28  56 SW14G22   29.89F
OLATHE IND     CLOUDY    38  21  50 S14       30.00F WCI  30
OLATHE EXE     CLOUDY    37  22  54 SE13      29.99F WCI  29
SALINA         CLOUDY    45  28  51 SW15      29.93S
TOPEKA BILLARD CLOUDY    42  23  46 S10       29.97F
TOPEKA FORBES  CLOUDY    41  23  48 S13       29.96F
$$



USA.gov is the U.S. government's official web portal to all federal, state and local government web resources and services.